Hourly Data Report for February 22, 2018

TORONTO CITY
ONTARIO

43°40'00.000" N
79°24'00.000" W
112.50 m
6158355
71508
XTO

Download Data

Hourly Data (February 2018)
Hourly Data Report for February 22, 2018
TIME
LST
Temp Definition
°C
Dew Point Definition
°C
Rel Hum Definition
%
Precip. Amount Definition
mm

Wind Dir Definition
10's deg

Wind Spd Definition
km/h
Visibility Definition
km
Stn Press Definition
kPa
Hmdx Definition


Wind Chill Definition


Weather Definition


00:00 -0.5 -5.3 70 0.0 LegendMM LegendMM   102.41     LegendNANA
01:00 -1.2 -5.8 71 0.0 LegendMM LegendMM   102.42     LegendNANA
02:00 -1.6 -5.9 72 0.2 LegendMM LegendMM   102.46     LegendNANA
03:00 -1.6 -6.1 72 0.0 LegendMM LegendMM   102.43     LegendNANA
04:00 -1.7 -6.6 69 0.0 LegendMM LegendMM   102.39     LegendNANA
05:00 -1.7 -6.4 70 0.0 LegendMM LegendMM   102.37     LegendNANA
06:00 -1.7 -6.7 69 0.0 LegendMM LegendMM   102.39     LegendNANA
07:00 -1.6 -6.9 67 0.0 LegendMM LegendMM   102.37     LegendNANA
08:00 -1.1 -6.8 66 0.0 LegendMM LegendMM   102.38     LegendNANA
09:00 -0.9 -5.9 69 0.0 LegendMM LegendMM   102.42     LegendNANA
10:00 -0.6 -5.1 72 0.0 LegendMM LegendMM   102.43     LegendNANA
11:00 0.1 -4.7 70 0.0 LegendMM LegendMM   102.48     LegendNANA
12:00 0.8 -5.4 63 0.0 LegendMM LegendMM   102.55     LegendNANA
13:00 0.4 -5.6 64 0.0 LegendMM LegendMM   102.48     LegendNANA
14:00 0.7 -6.0 61 0.0 LegendMM LegendMM   102.45     LegendNANA
15:00 1.1 -6.1 59 0.0 LegendMM LegendMM   102.34     LegendNANA
16:00 0.9 -6.4 59 0.0 LegendMM LegendMM   102.35     LegendNANA
17:00 0.8 -6.4 59 0.0 LegendMM LegendMM   102.38     LegendNANA
18:00 0.5 -5.9 62 0.0 LegendMM LegendMM   102.33     LegendNANA
19:00 0.3 -5.5 65 0.0 LegendMM LegendMM   102.41     LegendNANA
20:00 0.2 -5.1 68 0.0 LegendMM LegendMM   102.37     LegendNANA
21:00 0.2 -5.0 68 0.0 LegendMM LegendMM   102.40     LegendNANA
22:00 0.2 -5.5 65 0.0 LegendMM LegendMM   102.38     LegendNANA
23:00 0.1 -4.9 69 0.0 LegendMM LegendMM   102.29     LegendNANA

Notes on Data Quality.

Legend

  • E = Estimated
  • M = Missing
  • NA = Not Available*
  • [empty] = Indicates an unobserved value
Date modified: